Time,TemperatureF,DewpointF,PressureIn,WindDirection,WindDirectionDegrees,WindSpeedMPH,WindSpeedGustMPH,Humidity,HourlyPrecipIn,Conditions,Clouds,dailyrainin,SoftwareType,DateUTC
2013-08-23 00:12:00,71.7,71.0,29.83,NW,308,0.0,0.0,97,0.00,,,0.00,weatherlink.com 1.10,2013-08-23 04:12:00,
2013-08-23 00:27:00,71.5,71.0,29.83,NW,307,0.0,1.0,97,0.00,,,0.00,weatherlink.com 1.10,2013-08-23 04:27:00,
2013-08-23 00:42:00,71.3,70.0,29.83,NW,307,0.0,0.0,97,0.00,,,0.00,weatherlink.com 1.10,2013-08-23 04:42:00,
2013-08-23 00:57:00,71.2,71.0,29.83,NW,307,0.0,1.0,98,0.00,,,0.00,weatherlink.com 1.10,2013-08-23 04:57:00,
2013-08-23 01:12:00,70.9,70.0,29.83,NW,307,0.0,0.0,97,0.00,,,0.00,weatherlink.com 1.10,2013-08-23 05:12:00,
2013-08-23 01:27:00,70.5,70.0,29.83,NW,307,0.0,0.0,97,0.00,,,0.00,weatherlink.com 1.10,2013-08-23 05:27:00,
2013-08-23 01:42:00,70.1,69.0,29.83,NW,307,0.0,0.0,97,0.00,,,0.00,weatherlink.com 1.10,2013-08-23 05:42:00,
2013-08-23 01:57:00,69.7,69.0,29.83,NW,307,0.0,0.0,97,0.00,,,0.00,weatherlink.com 1.10,2013-08-23 05:57:00,
2013-08-23 02:12:00,69.3,69.0,29.83,NW,307,0.0,1.0,97,0.00,,,0.00,weatherlink.com 1.10,2013-08-23 06:12:00,
2013-08-23 02:27:00,69.0,68.0,29.83,NW,307,0.0,0.0,97,0.00,,,0.00,weatherlink.com 1.10,2013-08-23 06:27:00,
2013-08-23 02:42:00,68.8,68.0,29.84,NW,307,0.0,0.0,97,0.00,,,0.00,weatherlink.com 1.10,2013-08-23 06:42:00,
2013-08-23 02:57:00,68.5,68.0,29.83,NW,307,0.0,0.0,97,0.00,,,0.00,weatherlink.com 1.10,2013-08-23 06:57:00,
2013-08-23 03:12:00,68.5,68.0,29.83,West,269,0.0,1.0,97,0.00,,,0.00,weatherlink.com 1.10,2013-08-23 07:12:00,
2013-08-23 03:27:00,68.5,68.0,29.83,West,269,0.0,1.0,97,0.00,,,0.00,weatherlink.com 1.10,2013-08-23 07:27:00,
2013-08-23 03:42:00,68.6,68.0,29.83,West,270,0.0,1.0,97,0.00,,,0.00,weatherlink.com 1.10,2013-08-23 07:42:00,
2013-08-23 03:57:00,68.6,68.0,29.83,West,278,0.0,2.0,96,0.00,,,0.00,weatherlink.com 1.10,2013-08-23 07:57:00,
2013-08-23 04:13:00,68.6,68.0,29.83,West,278,0.0,1.0,96,0.00,,,0.00,weatherlink.com 1.10,2013-08-23 08:13:00,
2013-08-23 04:27:00,68.6,68.0,29.84,West,278,0.0,0.0,96,0.00,,,0.00,weatherlink.com 1.10,2013-08-23 08:27:00,
2013-08-23 04:43:00,68.2,67.0,29.84,West,278,0.0,0.0,96,0.00,,,0.00,weatherlink.com 1.10,2013-08-23 08:43:00,
2013-08-23 04:58:00,67.8,67.0,29.84,West,278,0.0,0.0,96,0.00,,,0.00,weatherlink.com 1.10,2013-08-23 08:58:00,
2013-08-23 05:13:00,67.4,66.0,29.85,West,278,0.0,0.0,96,0.00,,,0.00,weatherlink.com 1.10,2013-08-23 09:13:00,
2013-08-23 05:28:00,67.2,66.0,29.85,West,278,0.0,0.0,96,0.00,,,0.00,weatherlink.com 1.10,2013-08-23 09:28:00,
2013-08-23 05:43:00,67.0,66.0,29.86,West,278,0.0,0.0,96,0.00,,,0.00,weatherlink.com 1.10,2013-08-23 09:43:00,
2013-08-23 05:58:00,66.8,66.0,29.86,West,278,0.0,0.0,96,0.00,,,0.00,weatherlink.com 1.10,2013-08-23 09:58:00,
2013-08-23 06:13:00,66.7,66.0,29.87,West,278,0.0,0.0,96,0.00,,,0.00,weatherlink.com 1.10,2013-08-23 10:13:00,
2013-08-23 06:28:00,66.4,65.0,29.88,West,278,0.0,0.0,96,0.00,,,0.00,weatherlink.com 1.10,2013-08-23 10:28:00,
2013-08-23 06:43:00,66.4,66.0,29.89,West,278,0.0,1.0,97,0.00,,,0.00,weatherlink.com 1.10,2013-08-23 10:43:00,
2013-08-23 06:58:00,66.6,66.0,29.89,West,278,0.0,0.0,97,0.00,,,0.00,weatherlink.com 1.10,2013-08-23 10:58:00,
2013-08-23 07:13:00,66.6,66.0,29.90,West,278,0.0,0.0,97,0.00,,,0.00,weatherlink.com 1.10,2013-08-23 11:13:00,
2013-08-23 07:28:00,66.9,66.0,29.90,West,278,0.0,0.0,97,0.00,,,0.00,weatherlink.com 1.10,2013-08-23 11:28:00,
2013-08-23 07:43:00,67.5,67.0,29.91,West,278,0.0,2.0,97,0.00,,,0.00,weatherlink.com 1.10,2013-08-23 11:43:00,
2013-08-23 07:58:00,68.5,67.0,29.92,West,278,0.0,1.0,96,0.00,,,0.00,weatherlink.com 1.10,2013-08-23 11:58:00,
2013-08-23 08:13:00,69.5,67.0,29.92,WNW,287,0.0,1.0,92,0.00,,,0.00,weatherlink.com 1.10,2013-08-23 12:13:00,
2013-08-23 08:28:00,71.1,68.0,29.92,WNW,287,0.0,0.0,90,0.00,,,0.00,weatherlink.com 1.10,2013-08-23 12:28:00,
2013-08-23 08:43:00,72.2,68.0,29.92,WNW,287,0.0,1.0,85,0.00,,,0.00,weatherlink.com 1.10,2013-08-23 12:43:00,
2013-08-23 08:58:00,73.3,68.0,29.92,WNW,287,0.0,0.0,84,0.00,,,0.00,weatherlink.com 1.10,2013-08-23 12:58:00,
2013-08-23 09:13:00,74.0,68.0,29.93,West,279,0.0,2.0,81,0.00,,,0.00,weatherlink.com 1.10,2013-08-23 13:13:00,
2013-08-23 09:28:00,74.0,68.0,29.93,WNW,295,0.0,1.0,80,0.00,,,0.00,weatherlink.com 1.10,2013-08-23 13:28:00,
2013-08-23 09:43:00,74.3,67.0,29.93,WNW,298,0.0,3.0,78,0.00,,,0.00,weatherlink.com 1.10,2013-08-23 13:43:00,
2013-08-23 09:58:00,75.1,67.0,29.93,West,270,0.0,5.0,77,0.00,,,0.00,weatherlink.com 1.10,2013-08-23 13:58:00,
2013-08-23 10:13:00,75.9,66.0,29.93,North,350,0.0,4.0,71,0.00,,,0.00,weatherlink.com 1.10,2013-08-23 14:13:00,
2013-08-23 10:28:00,75.7,65.0,29.94,North,355,0.0,4.0,70,0.00,,,0.00,weatherlink.com 1.10,2013-08-23 14:28:00,
2013-08-23 10:43:00,76.7,64.0,29.94,West,266,1.0,6.0,66,0.00,,,0.00,weatherlink.com 1.10,2013-08-23 14:43:00,
2013-08-23 10:58:00,78.0,63.0,29.93,East,95,0.0,5.0,60,0.00,,,0.00,weatherlink.com 1.10,2013-08-23 14:58:00,
2013-08-23 11:13:00,79.2,63.0,29.93,NW,310,2.0,3.0,57,0.00,,,0.00,weatherlink.com 1.10,2013-08-23 15:13:00,
2013-08-23 11:29:00,80.1,60.0,29.93,West,276,3.0,5.0,51,0.00,,,0.00,weatherlink.com 1.10,2013-08-23 15:29:00,
2013-08-23 11:44:00,80.0,61.0,29.93,West,259,0.0,5.0,53,0.00,,,0.00,weatherlink.com 1.10,2013-08-23 15:44:00,
2013-08-23 11:58:00,81.4,60.0,29.93,NNW,344,4.0,6.0,49,0.00,,,0.00,weatherlink.com 1.10,2013-08-23 15:58:00,
2013-08-23 12:14:00,81.6,58.0,29.93,North,350,1.0,7.0,44,0.00,,,0.00,weatherlink.com 1.10,2013-08-23 16:14:00,
2013-08-23 12:44:00,81.0,58.0,29.93,WSW,257,5.0,5.0,45,0.00,,,0.00,weatherlink.com 1.10,2013-08-23 16:44:00,
2013-08-23 12:59:00,80.4,56.0,29.93,West,261,0.0,5.0,43,0.00,,,0.00,weatherlink.com 1.10,2013-08-23 16:59:00,
2013-08-23 13:14:00,80.2,57.0,29.93,ESE,113,0.0,4.0,45,0.00,,,0.00,weatherlink.com 1.10,2013-08-23 17:14:00,
2013-08-23 13:29:00,80.8,57.0,29.94,East,100,2.0,4.0,44,0.00,,,0.00,weatherlink.com 1.10,2013-08-23 17:29:00,
2013-08-23 13:44:00,80.9,59.0,29.94,North,355,3.0,7.0,47,0.00,,,0.00,weatherlink.com 1.10,2013-08-23 17:44:00,
2013-08-23 13:59:00,80.6,58.0,29.94,NW,318,2.0,4.0,46,0.00,,,0.00,weatherlink.com 1.10,2013-08-23 17:59:00,
2013-08-23 14:14:00,80.6,58.0,29.93,North,355,2.0,3.0,47,0.00,,,0.00,weatherlink.com 1.10,2013-08-23 18:14:00,
2013-08-23 14:29:00,80.6,60.0,29.93,North,351,0.0,5.0,50,0.00,,,0.00,weatherlink.com 1.10,2013-08-23 18:29:00,
2013-08-23 14:44:00,80.5,60.0,29.93,West,266,0.0,4.0,50,0.00,,,0.00,weatherlink.com 1.10,2013-08-23 18:44:00,
2013-08-23 14:59:00,80.4,59.0,29.94,WNW,284,0.0,7.0,49,0.00,,,0.00,weatherlink.com 1.10,2013-08-23 18:59:00,
2013-08-23 15:14:00,80.2,59.0,29.93,WNW,287,0.0,3.0,49,0.00,,,0.00,weatherlink.com 1.10,2013-08-23 19:14:00,
2013-08-23 15:29:00,80.3,60.0,29.93,West,267,0.0,3.0,51,0.00,,,0.00,weatherlink.com 1.10,2013-08-23 19:29:00,
2013-08-23 15:44:00,79.9,60.0,29.93,NNW,339,0.0,3.0,51,0.00,,,0.00,weatherlink.com 1.10,2013-08-23 19:44:00,
2013-08-23 15:59:00,79.7,61.0,29.93,WNW,285,0.0,4.0,53,0.00,,,0.00,weatherlink.com 1.10,2013-08-23 19:59:00,
2013-08-23 16:14:00,79.5,62.0,29.93,WNW,285,0.0,2.0,56,0.00,,,0.00,weatherlink.com 1.10,2013-08-23 20:14:00,
2013-08-23 16:29:00,79.4,63.0,29.93,WNW,284,0.0,2.0,58,0.00,,,0.00,weatherlink.com 1.10,2013-08-23 20:29:00,
2013-08-23 16:44:00,79.2,64.0,29.93,WNW,284,0.0,2.0,59,0.00,,,0.00,weatherlink.com 1.10,2013-08-23 20:44:00,
2013-08-23 16:59:00,78.9,63.0,29.93,West,275,0.0,3.0,59,0.00,,,0.00,weatherlink.com 1.10,2013-08-23 20:59:00,
2013-08-23 17:14:00,78.7,64.0,29.93,NW,304,0.0,4.0,60,0.00,,,0.00,weatherlink.com 1.10,2013-08-23 21:14:00,
2013-08-23 17:29:00,78.6,63.0,29.93,West,278,0.0,2.0,60,0.00,,,0.00,weatherlink.com 1.10,2013-08-23 21:29:00,
2013-08-23 17:44:00,78.5,62.0,29.93,WNW,290,0.0,1.0,57,0.00,,,0.00,weatherlink.com 1.10,2013-08-23 21:44:00,
2013-08-23 18:00:00,79.3,63.0,29.94,WNW,292,0.0,4.0,58,0.00,,,0.00,weatherlink.com 1.10,2013-08-23 22:00:00,
2013-08-23 18:14:00,79.6,64.0,29.94,WNW,292,0.0,1.0,60,0.00,,,0.00,weatherlink.com 1.10,2013-08-23 22:14:00,
2013-08-23 18:29:00,79.3,62.0,29.94,NW,304,0.0,2.0,56,0.00,,,0.00,weatherlink.com 1.10,2013-08-23 22:29:00,
2013-08-23 18:44:00,78.9,62.0,29.94,NW,304,1.0,2.0,56,0.00,,,0.00,weatherlink.com 1.10,2013-08-23 22:44:00,
2013-08-23 18:59:00,78.7,62.0,29.95,NW,311,0.0,1.0,57,0.00,,,0.00,weatherlink.com 1.10,2013-08-23 22:59:00,
2013-08-23 19:14:00,78.2,63.0,29.95,NW,311,0.0,0.0,60,0.00,,,0.00,weatherlink.com 1.10,2013-08-23 23:14:00,
2013-08-23 19:29:00,77.3,62.0,29.96,NW,311,0.0,0.0,60,0.00,,,0.00,weatherlink.com 1.10,2013-08-23 23:29:00,
2013-08-23 19:44:00,76.0,62.0,29.96,NW,311,0.0,0.0,62,0.00,,,0.00,weatherlink.com 1.10,2013-08-23 23:44:00,
2013-08-23 19:59:00,74.9,62.0,29.97,NW,311,0.0,0.0,65,0.00,,,0.00,weatherlink.com 1.10,2013-08-23 23:59:00,
2013-08-23 20:14:00,73.8,61.0,29.98,NW,311,0.0,0.0,65,0.00,,,0.00,weatherlink.com 1.10,2013-08-24 00:14:00,
2013-08-23 20:29:00,72.8,61.0,29.98,NW,311,0.0,0.0,66,0.00,,,0.00,weatherlink.com 1.10,2013-08-24 00:29:00,
2013-08-23 20:44:00,72.4,59.0,29.99,NW,311,0.0,2.0,64,0.00,,,0.00,weatherlink.com 1.10,2013-08-24 00:44:00,
2013-08-23 20:59:00,72.2,58.0,30.00,NE,43,0.0,1.0,62,0.00,,,0.00,weatherlink.com 1.10,2013-08-24 00:59:00,
2013-08-23 21:14:00,72.0,59.0,30.00,NE,43,0.0,0.0,63,0.00,,,0.00,weatherlink.com 1.10,2013-08-24 01:14:00,
2013-08-23 21:29:00,71.5,59.0,30.01,NE,43,0.0,0.0,64,0.00,,,0.00,weatherlink.com 1.10,2013-08-24 01:29:00,
2013-08-23 21:44:00,70.9,60.0,30.01,NE,43,0.0,0.0,68,0.00,,,0.00,weatherlink.com 1.10,2013-08-24 01:44:00,
2013-08-23 21:59:00,69.9,60.0,30.02,NE,43,0.0,0.0,71,0.00,,,0.00,weatherlink.com 1.10,2013-08-24 01:59:00,
2013-08-23 22:14:00,69.0,61.0,30.02,NE,43,0.0,0.0,75,0.00,,,0.00,weatherlink.com 1.10,2013-08-24 02:14:00,
2013-08-23 22:29:00,68.2,61.0,30.03,NE,43,0.0,0.0,77,0.00,,,0.00,weatherlink.com 1.10,2013-08-24 02:29:00,
2013-08-23 22:44:00,67.6,61.0,30.02,NE,43,0.0,0.0,79,0.00,,,0.00,weatherlink.com 1.10,2013-08-24 02:44:00,
2013-08-23 22:59:00,66.9,61.0,30.03,NE,43,0.0,0.0,80,0.00,,,0.00,weatherlink.com 1.10,2013-08-24 02:59:00,
2013-08-23 23:14:00,66.4,60.0,30.03,NE,43,0.0,0.0,80,0.00,,,0.00,weatherlink.com 1.10,2013-08-24 03:14:00,
2013-08-23 23:29:00,66.2,60.0,30.04,NE,43,0.0,0.0,79,0.00,,,0.00,weatherlink.com 1.10,2013-08-24 03:29:00,
2013-08-23 23:44:00,66.1,59.0,30.04,NE,42,0.0,1.0,78,0.00,,,0.00,weatherlink.com 1.10,2013-08-24 03:44:00,
2013-08-23 23:59:00,66.2,59.0,30.04,ESE,107,0.0,2.0,78,0.00,,,0.00,weatherlink.com 1.10,2013-08-24 03:59:00,